This demonstration page uses our WeatherBlox Daily Observations layout. Learn more.

Left ArrowRight Arrow

Hourly Observations for July 24, 2018

Temp ( °F °C ) Dew Point ( °F °C ) Humidity (%) Winds ( mph kmh ) Pressure ( in mb ) Visibility ( mi km ) Precip ( " mm )
12:53 am 00:53 Clear 85 29.4 65 18.3 51 51 NNE 5 7 29.92 1013 10 16 0.00 0.00
1:53 am 01:53 Clear 82 27.8 65 18.3 56 56 Calm 29.92 1013 10 16 0.00 0.00
2:53 am 02:53 Clear 81 27.2 65 18.3 58 58 N 3 6 29.93 1013 10 16 0.00 0.00
3:53 am 03:53 Clear 80 26.7 64 17.8 58 58 NNW 3 6 29.93 1014 10 16 0.00 0.00
4:53 am 04:53 Clear 79 26.1 64 17.8 60 60 NNW 5 7 29.93 1014 10 16 0.00 0.00
5:53 am 05:53 Clear 78 25.6 64 17.8 62 62 Calm 29.95 1014 10 16 0.00 0.00
6:53 am 06:53 Sunny 78 25.6 64 17.8 62 62 Calm 29.96 1015 10 16 0.00 0.00
7:53 am 07:53 Sunny 83 28.3 65 18.3 55 55 Calm 29.97 1015 10 16 0.00 0.00
8:53 am 08:53 Sunny 86 30 63 17.2 46 46 Calm 29.97 1015 10 16 0.00 0.00
9:53 am 09:53 Sunny 90 32.2 62 16.7 39 39 Calm 29.97 1015 10 16 0.00 0.00
10:53 am 10:53 Sunny 96 35.6 61 16.1 31 31 ENE 3 6 29.96 1014 9 14 0.00 0.00
11:53 am 11:53 Sunny 98 36.7 62 16.7 31 31 Calm 29.94 1014 10 16 0.00 0.00
12:53 pm 12:53 Sunny 102 38.9 58 14.4 23 23 SSW 6 9 29.92 1013 10 16 0.00 0.00
1:53 pm 13:53 Sunny 104 40 55 12.8 20 20 S 7 11 29.91 1013 10 16 0.00 0.00
2:53 pm 14:53 Sunny 104 40 57 13.9 21 21 undefined N/A 29.88 1012 10 16 0.00 0.00
3:53 pm 15:53 Sunny 107 41.7 54 12.2 17 17 S 7 11 29.86 1011 10 16 0.00 0.00
4:53 pm 16:53 Sunny 107 41.7 56 13.3 19 19 SE 14 22 29.85 1011 10 16 0.00 0.00
5:53 pm 17:53 Sunny 106 41.1 59 15 21 21 SSE 16 26 29.84 1011 10 16 0.00 0.00
6:53 pm 18:53 Sunny 104 40 60 15.6 24 24 SSE 14 22 29.84 1010 10 16 0.00 0.00
7:53 pm 19:53 Sunny 100 37.8 60 15.6 27 27 S 9 15 29.85 1011 10 16 0.00 0.00
8:53 pm 20:53 Clear 96 35.6 61 16.1 31 31 SSE 13 20 29.88 1012 10 16 0.00 0.00
9:53 pm 21:53 Clear 94 34.4 62 16.7 35 35 S 12 19 29.90 1012 10 16 0.00 0.00
10:53 pm 22:53 Clear 90 32.2 64 17.8 42 42 SE 6 9 29.92 1013 10 16 0.00 0.00
11:53 pm 23:53 Cloudy 88 31.1 59 15 38 38 SSW 7 11 29.93 1014 10 16 0.00 0.00

Powered by AerisWeather